Weather History for Sheboygan, WI

Change the Weather History Date:

Sunday, December 9, 2012

  Actual Average Record
Temperature  
Mean Temperature 34 °F -  
Max Temperature 36 °F 34 °F 50 °F (1990)
Min Temperature 32 °F 21 °F -6 °F (1958)
Degree Days  
Heating Degree Days 31    
Moisture  
Dew Point 31 °F    
Average Humidity 91    
Maximum Humidity 100    
Minimum Humidity 67    
Precipitation  
Precipitation 0.34 in - - ()
Sea Level Pressure  
Sea Level Pressure 29.90 in    
Wind  
Wind Speed 10 mph (East)    
Max Wind Speed 13 mph    
Max Gust Speed 21 mph    
Visibility 4 miles    
Events Fog , Snow    
Averages and records for this station are not official NWS values.
T = Trace of Precipitation, MM = Missing Value Source: NWS Daily Summary

Daily Weather History Graph

Daily Weather History Graph

Search for Another Location

Airport:

Trip Planner

Search our weather history database for the weather conditions in past years. The results will help you decide how hot, cold, wet, or windy it might be!

Date:

Astronomy

Dec. 09, 2012 Rise Set
Actual Time 7:13 AM CST 4:14 PM CST
Civil Twilight 6:41 AM CST 4:46 PM CST
Nautical Twilight 6:05 AM CST 5:22 PM CST
Astronomical Twilight 5:30 AM CST 5:57 PM CST
Moon 2:40 AM CST (12/9) 1:25 PM CST (12/9)
Length of Visible Light 10h 05m
Length of Day
9h 00m
Waning Crescent, 18% of the Moon is Illuminated
Dec 9
Waning Crescent
Dec 13
New
Dec 19
First Quarter
Dec 28
Full
Jan 4
Last Quarter

Hourly Weather History & Observations

Time (CST) Temp. Windchill Dew Point Humidity Pressure Visibility Wind Dir Wind Speed Gust Speed Precip Events Conditions
12:44 AM 35.6 °F 28.0 °F 28.4 °F 75% 30.13 in 10.0 mi East 10.4 mph - N/A   Overcast
12:53 AM 36.0 °F 29.0 °F 28.9 °F 76% 30.15 in 10.0 mi ESE 9.2 mph - N/A   Overcast
1:53 AM 36.0 °F 29.0 °F 27.0 °F 70% 30.15 in 10.0 mi ESE 9.2 mph 18.4 mph N/A   Overcast
2:53 AM 36.0 °F 28.5 °F 26.1 °F 67% 30.14 in 10.0 mi East 10.4 mph - N/A   Overcast
3:24 AM 35.6 °F 27.5 °F 26.6 °F 70% 30.12 in 10.0 mi East 11.5 mph - N/A   Overcast
3:44 AM 35.6 °F 28.0 °F 26.6 °F 70% 30.13 in 10.0 mi East 10.4 mph - N/A   Overcast
3:53 AM 35.1 °F 27.4 °F 26.1 °F 70% 30.15 in 10.0 mi East 10.4 mph - N/A   Overcast
4:15 AM 35.6 °F 28.0 °F 26.6 °F 70% 30.10 in 10.0 mi East 10.4 mph - N/A   Overcast
4:53 AM 35.1 °F 26.4 °F 25.0 °F 67% 30.12 in 10.0 mi East 12.7 mph 20.7 mph N/A   Overcast
5:53 AM 34.0 °F 25.5 °F 26.1 °F 73% 30.10 in 10.0 mi ESE 11.5 mph - N/A   Mostly Cloudy
6:53 AM 34.0 °F 26.0 °F 28.0 °F 79% 30.11 in 10.0 mi East 10.4 mph - N/A   Overcast
7:53 AM 34.0 °F 25.5 °F 30.0 °F 85% 30.09 in 1.5 mi ESE 11.5 mph - 0.00 in Snow Light Snow
8:16 AM 33.8 °F 27.0 °F 30.2 °F 87% 30.06 in 0.8 mi East 8.1 mph - 0.00 in Snow Light Snow
8:26 AM 33.8 °F 25.8 °F 30.2 °F 87% 30.06 in 0.8 mi East 10.4 mph - 0.01 in Snow Light Snow
8:53 AM 33.1 °F 25.5 °F 32.0 °F 96% 30.09 in 0.5 mi East 9.2 mph - 0.02 in Fog , Snow Snow
9:53 AM 32.0 °F 22.5 °F 32.0 °F 100% 30.06 in 0.5 mi East 12.7 mph - 0.04 in Fog , Snow Snow
10:48 AM 33.8 °F 26.4 °F 32.0 °F 93% 30.00 in 1.0 mi East 9.2 mph - 0.03 in Snow Light Snow
10:53 AM 33.1 °F 24.9 °F 32.0 °F 96% 30.02 in 0.8 mi East 10.4 mph - 0.03 in Snow Light Snow
11:33 AM 33.8 °F 25.8 °F 32.0 °F 93% 29.95 in 1.0 mi East 10.4 mph - 0.01 in Snow Light Snow
11:45 AM 33.8 °F 25.8 °F 32.0 °F 93% 29.94 in 0.8 mi East 10.4 mph - 0.01 in Snow Light Snow
11:53 AM 33.1 °F 24.4 °F 32.0 °F 96% 29.96 in 0.8 mi East 11.5 mph - 0.02 in Snow Light Snow
12:29 PM 33.8 °F 25.8 °F 32.0 °F 93% 29.91 in 0.2 mi East 10.4 mph - 0.03 in Fog , Snow Heavy Snow
12:38 PM 33.8 °F 25.8 °F 32.0 °F 93% 29.91 in 0.2 mi East 10.4 mph - 0.03 in Fog , Snow Heavy Snow
12:53 PM 32.0 °F 24.2 °F 32.0 °F 100% 29.92 in 0.2 mi East 9.2 mph - 0.05 in Fog , Snow Heavy Snow
1:19 PM 33.8 °F 27.0 °F 33.8 °F 100% 29.89 in 0.5 mi East 8.1 mph - 0.03 in Fog , Snow Snow
1:53 PM 33.1 °F 24.9 °F 32.0 °F 96% 29.88 in 0.5 mi ENE 10.4 mph - 0.07 in Fog , Snow Snow
2:30 PM 33.8 °F 25.8 °F 32.0 °F 93% 29.84 in 1.2 mi East 10.4 mph - 0.02 in Snow Light Snow
2:44 PM 33.8 °F 25.3 °F 32.0 °F 93% 29.84 in 2.5 mi East 11.5 mph - 0.02 in Snow Light Snow
2:53 PM 33.1 °F 23.9 °F 32.0 °F 96% 29.86 in 2.5 mi East 12.7 mph - 0.02 in Snow Light Snow
2:57 PM 33.8 °F 25.3 °F 32.0 °F 93% 29.83 in 3.0 mi East 11.5 mph - 0.00 in Snow Light Snow
3:53 PM 34.0 °F 26.0 °F 33.1 °F 96% 29.84 in 3.0 mi East 10.4 mph - 0.02 in Snow Light Snow
4:11 PM 33.8 °F 25.3 °F 32.0 °F 93% 29.81 in 2.5 mi East 11.5 mph 18.4 mph 0.00 in Snow Light Snow
4:19 PM 33.8 °F 25.3 °F 32.0 °F 93% 29.81 in 3.0 mi East 11.5 mph - 0.01 in Snow Light Snow
4:53 PM 33.1 °F 24.9 °F 32.0 °F 96% 29.81 in 2.5 mi East 10.4 mph - 0.01 in Snow Light Snow
5:04 PM 33.8 °F 25.3 °F 33.8 °F 100% 29.79 in 3.0 mi East 11.5 mph - 0.01 in Snow Light Snow
5:26 PM 33.8 °F 25.3 °F 32.0 °F 93% 29.78 in 2.5 mi East 11.5 mph - 0.01 in Snow Light Snow
5:53 PM 33.1 °F 24.4 °F 32.0 °F 96% 29.80 in 2.5 mi East 11.5 mph - 0.02 in Snow Light Snow
6:04 PM 33.8 °F 26.4 °F 32.0 °F 93% 29.77 in 3.0 mi East 9.2 mph - 0.00 in Snow Light Snow
6:19 PM 33.8 °F 26.4 °F 32.0 °F 93% 29.77 in 2.5 mi East 9.2 mph - 0.00 in Snow Light Snow
6:53 PM 33.1 °F 26.9 °F 32.0 °F 96% 29.78 in 1.8 mi East 6.9 mph - 0.01 in Snow Light Snow
7:19 PM 33.8 °F 28.6 °F 32.0 °F 93% 29.76 in 2.0 mi East 5.8 mph - 0.00 in Snow Light Snow
7:37 PM 33.8 °F 27.7 °F 32.0 °F 93% 29.75 in 1.8 mi ENE 6.9 mph - 0.01 in Snow Light Snow
7:53 PM 33.1 °F 26.9 °F 32.0 °F 96% 29.76 in 1.5 mi East 6.9 mph - 0.01 in Snow Light Snow
8:22 PM 33.8 °F 28.6 °F 33.8 °F 100% 29.73 in 2.0 mi NE 5.8 mph - 0.01 in Snow Light Snow
8:53 PM 32.0 °F 24.8 °F 32.0 °F 100% 29.74 in 2.0 mi NE 8.1 mph - 0.01 in Snow Light Snow
9:16 PM 32.0 °F 24.8 °F 32.0 °F 100% 29.71 in 3.0 mi ENE 8.1 mph - 0.00 in Snow Light Snow
9:34 PM 32.0 °F 24.8 °F 32.0 °F 100% 29.70 in 2.5 mi NE 8.1 mph - 0.00 in Snow Light Snow
9:53 PM 32.0 °F 24.8 °F 32.0 °F 100% 29.72 in 3.0 mi NE 8.1 mph - 0.00 in Snow Light Snow
10:53 PM 33.1 °F 26.9 °F 32.0 °F 96% 29.71 in 5.0 mi NNE 6.9 mph - 0.00 in   Overcast
11:03 PM 33.8 °F 27.7 °F 32.0 °F 93% 29.68 in 5.0 mi NNE 6.9 mph - N/A   Overcast
11:19 PM 32.0 °F 25.6 °F 32.0 °F 100% 29.69 in 2.0 mi North 6.9 mph - 0.00 in Snow Light Snow
11:27 PM 32.0 °F 26.4 °F 32.0 °F 100% 29.69 in 1.8 mi North 5.8 mph - 0.00 in Snow Light Snow
11:46 PM 32.0 °F 24.8 °F 32.0 °F 100% 29.68 in 1.8 mi North 8.1 mph - 0.01 in Snow Light Snow
11:53 PM 32.0 °F 24.2 °F 32.0 °F 100% 29.71 in 1.8 mi NNE 9.2 mph - 0.01 in Snow Light Snow